Date String (YYYY-MM-DD hh:mm:ss) UTC,Instrument flags,Ambient pressure (hPa),Sample flow (lpm),Bypass flow (lpm),Sample temperature (°C),Ambient temperature (°C),ASC tube jacket temperature (°C),LED temperature (°C),Box temperature (°C),Sample RH (%),Span deviation,Mass concentration (μg/m³),Mass concentration (μg/m³),Mass concentration (μg/m³)
DateTimeUTC,F1_M11,P_M11,Q1_M11,Q2_M11,T1_M11,T2_M11,T3_M11,T4_M11,T5_M11,U1_M11,ZSPAN_M11,X2_M11,X0_M11,X1_M11
2022-11-03 08:00:00,,0816.4,4.98,0.00,27.9,26.2,00.0,36.8,29.7,07.2,0000.0,0001.91,0007.59,0001.31
2022-11-03 08:01:00,,0816.4,5.01,0.00,27.9,26.2,00.0,36.8,29.7,07.2,0000.0,0001.98,0008.09,0001.33
2022-11-03 08:02:00,,0816.5,5.01,0.00,27.8,26.2,00.0,36.7,29.7,07.2,0000.0,0002.02,0008.33,0001.35
2022-11-03 08:03:00,,0816.4,5.01,0.00,27.8,26.2,00.0,36.7,29.6,07.2,0000.0,0002.11,0008.53,0001.37
2022-11-03 08:04:00,,0816.5,4.98,0.00,27.8,26.2,00.0,36.7,29.6,07.2,0000.0,0002.13,0008.49,0001.39
2022-11-03 08:05:00,,0816.5,5.00,0.00,27.8,26.2,00.0,36.7,29.7,07.3,0000.0,0002.11,0008.26,0001.41
2022-11-03 08:06:00,,0816.5,5.01,0.00,27.8,26.2,00.0,36.7,29.7,07.3,0000.0,0002.12,0007.83,0001.42
2022-11-03 08:07:00,,0816.5,5.01,0.00,27.8,26.2,00.0,36.7,29.7,07.3,0000.0,0002.11,0007.39,0001.43
2022-11-03 08:08:00,,0816.4,4.99,0.00,27.8,26.3,00.0,36.7,29.7,07.3,0000.0,0002.18,0007.71,0001.43
2022-11-03 08:09:00,,0816.4,5.00,0.00,27.8,26.3,00.0,36.7,29.7,07.3,0000.0,0002.22,0007.80,0001.45
2022-11-03 08:10:00,,0816.4,4.99,0.00,27.8,26.3,00.0,36.7,29.7,07.3,0000.0,0002.26,0006.91,0001.46
2022-11-03 08:11:00,,0816.5,5.00,0.00,27.8,26.3,00.0,36.7,29.7,07.2,0000.0,0002.27,0006.39,0001.48
2022-11-03 08:12:00,,0816.4,5.00,0.00,27.8,26.3,00.0,36.7,29.7,07.1,0000.0,0002.29,0005.93,0001.49
2022-11-03 08:13:00,,0816.4,5.00,0.00,27.8,26.3,00.0,36.7,29.7,07.2,0000.0,0002.34,0005.54,0001.50
2022-11-03 08:14:00,,0816.4,5.01,0.00,27.8,26.3,00.0,36.7,29.7,07.1,0000.0,0002.32,0005.37,0001.50
2022-11-03 08:15:00,,0816.4,5.01,0.00,27.8,26.3,00.0,36.7,29.7,07.0,0000.0,0002.31,0005.50,0001.50
2022-11-03 08:16:00,,0816.4,5.00,0.00,27.8,26.3,00.0,36.7,29.7,06.9,0000.0,0002.28,0005.96,0001.48
2022-11-03 08:17:00,,0816.4,4.99,0.00,27.9,26.3,00.0,36.7,29.7,06.9,0000.0,0002.26,0006.03,0001.47
2022-11-03 08:18:00,,0816.4,5.00,0.00,27.9,26.3,00.0,36.7,29.8,06.9,0000.0,0002.24,0005.97,0001.46
2022-11-03 08:19:00,,0816.4,5.01,0.00,27.9,26.3,00.0,36.7,29.7,06.9,0000.0,0002.12,0005.16,0001.44
2022-11-03 08:20:00,,0816.4,5.01,0.00,27.9,26.3,00.0,36.7,29.7,06.9,0000.0,0002.07,0004.84,0001.41
2022-11-03 08:21:00,,0816.3,5.00,0.00,27.9,26.3,00.0,36.7,29.7,06.9,0000.0,0002.03,0004.47,0001.40
2022-11-03 08:22:00,,0816.3,5.00,0.00,27.9,26.3,00.0,36.7,29.7,07.0,0000.0,0002.07,0004.63,0001.40
2022-11-03 08:23:00,,0816.3,5.00,0.00,27.9,26.3,00.0,36.7,29.7,07.0,0000.0,0002.06,0004.59,0001.38
2022-11-03 08:24:00,,0816.2,5.00,0.00,27.9,26.3,00.0,36.7,29.7,07.0,0000.0,0001.97,0004.31,0001.38
2022-11-03 08:25:00,,0816.2,4.99,0.00,27.9,26.3,00.0,36.7,29.7,07.0,0000.0,0001.95,0004.25,0001.38
2022-11-03 08:26:00,,0816.2,5.00,0.00,27.8,26.3,00.0,36.7,29.7,07.0,0000.0,0001.93,0004.61,0001.38
2022-11-03 08:27:00,,0816.2,5.01,0.00,27.8,26.3,00.0,36.7,29.7,07.0,0000.0,0001.90,0004.41,0001.39
2022-11-03 08:28:00,,0816.1,5.02,0.00,27.8,26.3,00.0,36.7,29.7,07.0,0000.0,0001.94,0005.11,0001.40
2022-11-03 08:29:00,,0816.1,4.97,0.00,27.8,26.3,00.0,36.7,29.7,07.0,0000.0,0001.94,0005.52,0001.40
2022-11-03 08:30:00,,0816.1,5.01,0.00,27.8,26.3,00.0,36.7,29.7,07.0,0000.0,0001.96,0005.80,0001.40
2022-11-03 08:31:00,,0816.0,5.01,0.00,27.8,26.3,00.0,36.7,29.7,07.0,0000.0,0002.08,0006.13,0001.41
2022-11-03 08:32:00,,0816.0,4.99,0.00,27.8,26.2,00.0,36.7,29.7,07.0,0000.0,0002.16,0007.02,0001.43
2022-11-03 08:33:00,,0816.0,5.00,0.00,27.8,26.2,00.0,36.7,29.6,07.0,0000.0,0002.11,0007.73,0001.43
2022-11-03 08:34:00,,0816.0,4.99,0.00,27.8,26.2,00.0,36.7,29.6,07.0,0000.0,0002.10,0008.38,0001.43
2022-11-03 08:35:00,,0816.1,5.00,0.00,27.8,26.2,00.0,36.6,29.6,07.0,0000.0,0002.17,0008.48,0001.43
2022-11-03 08:36:00,,0816.1,5.01,0.00,27.8,26.2,00.0,36.6,29.6,07.0,0000.0,0002.17,0008.45,0001.42
2022-11-03 08:37:00,,0816.1,5.01,0.00,27.8,26.2,00.0,36.6,29.6,07.0,0000.0,0002.17,0008.67,0001.42
2022-11-03 08:38:00,,0816.1,4.99,0.00,27.8,26.2,00.0,36.6,29.6,06.9,0000.0,0002.20,0008.91,0001.41
2022-11-03 08:39:00,,0816.1,5.01,0.00,27.8,26.2,00.0,36.6,29.6,07.0,0000.0,0002.17,0008.77,0001.40
2022-11-03 08:40:00,,0816.1,5.00,0.00,27.8,26.1,00.0,36.6,29.6,07.0,0000.0,0002.17,0009.18,0001.39
2022-11-03 08:41:00,,0816.1,5.00,0.00,27.8,26.1,00.0,36.6,29.6,06.9,0000.0,0002.22,0009.42,0001.39
2022-11-03 08:42:00,,0816.1,5.00,0.00,27.8,26.1,00.0,36.6,29.6,06.9,0000.0,0002.12,0009.24,0001.38
2022-11-03 08:43:00,,0816.1,4.99,0.00,27.7,26.1,00.0,36.6,29.6,07.0,0000.0,0002.02,0008.75,0001.35
2022-11-03 08:44:00,,0816.2,4.99,0.00,27.7,26.1,00.0,36.6,29.5,07.0,0000.0,0001.99,0008.49,0001.34
2022-11-03 08:45:00,,0816.1,4.99,0.00,27.7,26.0,00.0,36.6,29.5,07.0,0000.0,0001.94,0007.90,0001.34
2022-11-03 08:46:00,,0816.1,5.01,0.00,27.7,26.0,00.0,36.6,29.5,06.9,0000.0,0001.85,0007.85,0001.32
2022-11-03 08:47:00,,0816.1,5.01,0.00,27.7,26.0,00.0,36.6,29.5,07.0,0000.0,0001.87,0008.23,0001.32
2022-11-03 08:48:00,,0816.1,4.99,0.00,27.7,26.0,00.0,36.6,29.5,07.0,0000.0,0001.86,0008.00,0001.31
2022-11-03 08:49:00,,0816.2,4.99,0.00,27.7,26.0,00.0,36.6,29.5,07.0,0000.0,0001.84,0007.94,0001.31
2022-11-03 08:50:00,,0816.2,5.00,0.00,27.7,26.0,00.0,36.6,29.5,07.2,0000.0,0001.85,0007.59,0001.31
2022-11-03 08:51:00,,0816.1,4.99,0.00,27.7,26.0,00.0,36.6,29.5,07.2,0000.0,0001.91,0007.51,0001.31
2022-11-03 08:52:00,,0816.1,5.01,0.00,27.7,26.0,00.0,36.5,29.5,07.3,0000.0,0001.82,0007.43,0001.29
2022-11-03 08:53:00,,0816.2,5.01,0.00,27.7,26.0,00.0,36.5,29.5,07.3,0000.0,0001.80,0007.40,0001.29
2022-11-03 08:54:00,,0816.2,5.00,0.00,27.7,26.0,00.0,36.5,29.5,07.3,0000.0,0001.85,0007.38,0001.28
2022-11-03 08:55:00,,0816.1,4.99,0.00,27.6,26.0,00.0,36.5,29.5,07.1,0000.0,0001.86,0006.82,0001.29
2022-11-03 08:56:00,,0816.0,4.99,0.00,27.6,26.0,00.0,36.5,29.5,07.1,0000.0,0001.88,0007.82,0001.29
2022-11-03 08:57:00,,0816.0,5.01,0.00,27.6,26.0,00.0,36.5,29.5,07.0,0000.0,0001.93,0008.90,0001.30
2022-11-03 08:58:00,,0816.0,5.01,0.00,27.6,26.0,00.0,36.5,29.5,07.0,0000.0,0001.94,0008.99,0001.30
2022-11-03 08:59:00,,0816.0,5.00,0.00,27.6,26.0,00.0,36.5,29.4,07.1,0000.0,0001.97,0008.88,0001.32
